This is the latest recevied weather packets stored in our database for station/object VE2XOX. If no packets are shown the sender has not sent any weather packets the latest 10 day(s).
| Time | Temp. | Humidity | Pressure | Rain* | Wind** | Luminosity | Snow |
|---|---|---|---|---|---|---|---|
| 1778013921 | 20.56° C | 65% | 996.3 hPa | 0 mm | - | - | - |
| 1778013632 | 21.11° C | 66% | 996.2 hPa | 0 mm | - | - | - |
| 1778013317 | 20.56° C | 68% | 996.2 hPa | 0 mm | - | - | - |
| 1778013016 | 20° C | 69% | 996.2 hPa | 0 mm | - | - | - |
| 1778012726 | 20° C | 70% | 996.5 hPa | 0 mm | - | - | - |
| 1778012431 | 20° C | 70% | 996.4 hPa | 0 mm | - | - | - |
| 1778012114 | 20° C | 71% | 996.4 hPa | 0 mm | - | - | - |
| 1778011824 | 19.44° C | 74% | 996.5 hPa | 0 mm | - | - | - |
| 1778011527 | 19.44° C | 75% | 996.4 hPa | 0 mm | - | - | - |
| 1778011212 | 19.44° C | 77% | 996.5 hPa | 0 mm | - | - | - |
| 1778010924 | 18.89° C | 78% | 996.7 hPa | 0 mm | - | - | - |
| 1778010628 | 18.89° C | 78% | 996.9 hPa | 0 mm | - | - | - |
| 1778010314 | 18.89° C | 78% | 997.1 hPa | 0 mm | - | - | - |
| 1778010026 | 19.44° C | 78% | 997.1 hPa | 0 mm | - | - | - |
| 1778009713 | 18.89° C | 79% | 997.1 hPa | 0 mm | - | - | - |
| 1778009418 | 18.89° C | 80% | 997.1 hPa | 0 mm | - | - | - |
| 1778009128 | 18.33° C | 81% | 997.3 hPa | 0 mm | - | - | - |
| 1778008814 | 18.33° C | 82% | 997.4 hPa | 0 mm | - | - | - |
| 1778008516 | 17.78° C | 82% | 997.4 hPa | 0 mm | - | - | - |
| 1778008229 | 17.78° C | 83% | 997.7 hPa | 0 mm | - | - | - |
| 1778007913 | 17.78° C | 83% | 997.7 hPa | 0 mm | - | - | - |
| 1778007617 | 17.78° C | 87% | 997.5 hPa | 0 mm | - | - | - |
| 1778007326 | 17.22° C | 87% | 997.8 hPa | 0 mm | - | - | - |
| 1778007030 | 16.67° C | 87% | 997.9 hPa | 0 mm | - | - | - |
| 1778006716 | 16.11° C | 87% | 997.8 hPa | 0 mm | - | - | - |
* Rain latest hour (hover to see other rain measurements)
** Current wind speed in m/s (hover to see current wind gust speed)